Showing default

HORIZON GORIZONT, 61757

Orbit data source: Space-Track

HORIZON GORIZONT, 61757 is a payload satellite owned by BGTU (CIS) in SSO that was launched on Mon, 04 Nov 2024 UTC via a SOYUZ-2-1B launch vehicle from the Vostochny Cosmodrome (VOSTO). Payload-class satellites include a variety of spacecraft equipped with specific instruments for various scientific and technological missions. These include communications satellites like Starlink; space stations such as the ISS; scientific satellites like the Hubble; Earth observation satellites from companies like Planet Labs, Umbra, and HawkEye 360; GPS; miniature CubeSats for education and research; and military/defense satellites.

Loading next visibility...
Identifier
61757, 2024-199Y
Orbit
SSO
Country
Flag of CISCIS
Related business
Manufacturer
Geoskan
Mission
Operational Amateur Technology
Bus & Motor
CUBESAT 3U, Unknown motor
Mass
3 kg wet, 3 kg dry
Launch date (UTC)
2024-11-04 (1 year ago)
Launch vehicle
SOYUZ-2-1B
Launch site
Vostochny Cosmodrome (VOSTO)
Object type
Payload
Rocket body
Debris
Shape & HBR
Box, 0.1 m
Radar Cross Section
0.035 m², Small (<0.1 m²)

Expand to show TLE details & history
Last TLE update: 7 hours ago

TLE from 7 hours ago
0 HORIZON GORIZONT
1 61757U 24199Y   26037.95186395  .00127807  00000-0  13929-2 0  9996
2 61757  97.3136 275.5526 0007650  32.2821 327.8904 15.62949704117611
Epoch: 2026-02-06T22:50Z
TLE epoch observation values (Epoch: 2026-02-06T22:50:41.045Z)
Latitude
-0.00005°
Longitude
155.79922°
Altitude
377.914 km
Speed
7.685 km/s
True Right ascension
18h 22m 12s
True Declination
0° 00' 00"
Sunlit
Object was in daylight at epoch
Visualization orbit readout
Latitude
Unknown
Longitude
Unknown
Altitude
Unknown
Speed
Unknown
Apparent Right ascension
Unknown
Apparent Declination
Unknown
Sunlit
N/A
Visualization observer readout
Local Sidereal Time
08:01:34
Azimuth
Unknown
Elevation
Unknown
Doppler factor
Unknown
Orbital elements
Apogee altitude
381.214 km
Perigee altitude
370.88 km
Semi-major axis
6,754.184 km
Eccentricity
0.00077
Inclination
97.3136°
RAAN
275.5526°
Arg. of periapsis
32.2821°
True anomaly
327.84377°
Mean anomaly
327.8904°
Eccentric anomaly
327.86709°
Mean motion
3.91006 °/min
Orbital period
92.07 mins
BSTAR
0.0013929
Loading maneuver chart data...
Computing Atmospheric mass density...
Loading historical data...
Loading historical data...
Loading historical data...
Loading historical data...
Loading historical data...
Loading historical data...
Loading historical data...

Documentation

Showing up to 5 results
|